Location: Carnières
(50.1682°N, 3.3474°E)
Time: 13:09:47
(UTC+00:00)

Cosmos 1953 - Pass Details

Date: 23 May 2024
Orbit: 510 x 531 km, 82.5° (Epoch: 16 June)

Event Time Altitude Azimuth Distance (km) Brightness Sun altitude
Rises 02:33:36 0° 330° (NNW) 2,686 6.1 -9.8°
Reaches altitude 10° 02:37:15 10° 295° (WNW) 1,782 4.8 -9.4°
Maximum altitude 02:38:22 11° 278° (W) 1,713 4.5 -9.3°
Drops below altitude 10° 02:39:28 10° 261° (W) 1,774 4.5 -9.2°
Enters shadow 02:40:08 - 252° (WSW) 1,871 4.5 -9.1°
